Weather History for PASX - April, 2013

Change the Weather History Date:

Thursday, April 11, 2013

  Actual Average Record
Temperature  
Mean Temperature 12 °F -  
Max Temperature 23 °F 39 °F 55 °F (1997)
Min Temperature 1 °F 24 °F -8 °F (1985)
Degree Days  
Heating Degree Days 53    
Moisture  
Dew Point 2 °F    
Average Humidity 60    
Maximum Humidity 92    
Minimum Humidity 43    
Precipitation  
Precipitation 0.00 in - - ()
Sea Level Pressure  
Sea Level Pressure 30.03 in    
Wind  
Wind Speed 4 mph (North)    
Max Wind Speed 10 mph    
Max Gust Speed 17 mph    
Visibility 10 miles    
Events      
Averages and records for this station are not official NWS values.
T = Trace of Precipitation, MM = Missing Value Source: NWS Daily Summary

Daily Weather History Graph

Daily Weather History Graph

Search for Another Location

Airport or City:

Trip Planner

Search our weather history database for the weather conditions in past years. The results will help you decide how hot, cold, wet, or windy it might be!

Date:

Astronomy

Apr. 11, 2013 Rise Set
Actual Time 6:56 AM AKDT 9:15 PM AKDT
Civil Twilight 6:10 AM AKDT 10:01 PM AKDT
Nautical Twilight 5:10 AM AKDT 11:02 PM AKDT
Astronomical Twilight 3:49 AM AKDT 12:25 AM AKDT
Moon 7:10 AM AKDT (4/11) 11:33 PM AKDT (4/11)
Length of Visible Light 15h 50m
Length of Day
14h 18m
New Moon, 2% of the Moon is Illuminated
Apr 11
New Moon
Apr 18
First Quarter
Apr 25
Full
May 2
Last Quarter
May 9
New

Hourly Weather History & Observations

Time (AKDT) Temp. Windchill Dew Point Humidity Pressure Visibility Wind Dir Wind Speed Gust Speed Precip Events Conditions
12:16 AM 12.2 °F 2.9 °F 1.4 °F 62% 29.94 in 10.0 mi South 5.8 mph - N/A   Mostly Cloudy
12:36 AM 12.2 °F 4.3 °F 1.4 °F 62% 29.95 in 10.0 mi South 4.6 mph - N/A   Partly Cloudy
12:56 AM 12.2 °F 6.1 °F 1.4 °F 62% 29.95 in 10.0 mi South 3.5 mph - N/A   Scattered Clouds
1:16 AM 12.2 °F 4.3 °F -0.4 °F 57% 29.96 in 10.0 mi South 4.6 mph - N/A   Overcast
1:36 AM 12.2 °F 4.3 °F -0.4 °F 57% 29.96 in 10.0 mi South 4.6 mph - N/A   Mostly Cloudy
1:56 AM 10.4 °F 4.0 °F -0.4 °F 62% 29.97 in 10.0 mi South 3.5 mph - N/A   Scattered Clouds
2:16 AM 12.2 °F 2.9 °F -0.4 °F 57% 29.97 in 10.0 mi South 5.8 mph - N/A   Mostly Cloudy
2:36 AM 12.2 °F 4.3 °F 1.4 °F 62% 29.98 in 10.0 mi SSW 4.6 mph - N/A   Scattered Clouds
2:56 AM 6.8 °F - -5.8 °F 56% 29.98 in 10.0 mi Calm Calm - N/A   Mostly Cloudy
3:16 AM 6.8 °F -0.1 °F -0.4 °F 72% 29.98 in 10.0 mi East 3.5 mph - N/A   Overcast
3:36 AM 6.8 °F - -0.4 °F 72% 29.99 in 10.0 mi Calm Calm - N/A   Overcast
3:56 AM 5.0 °F - -2.2 °F 72% 29.99 in 10.0 mi Calm Calm - N/A   Scattered Clouds
4:16 AM 1.4 °F -6.2 °F -4.0 °F 78% 29.99 in 10.0 mi East 3.5 mph - N/A   Clear
4:36 AM 5.0 °F - 3.2 °F 92% 30.00 in 10.0 mi Calm Calm - N/A   Partly Cloudy
4:56 AM 3.2 °F - -2.2 °F 78% 30.00 in 10.0 mi Calm Calm - N/A   Clear
5:36 AM 1.4 °F - -4.0 °F 78% 30.00 in 10.0 mi Calm Calm - N/A   Clear
5:56 AM 3.2 °F -6.2 °F -0.4 °F 85% 30.00 in 10.0 mi ENE 4.6 mph - N/A   Clear
6:16 AM 1.4 °F - -4.0 °F 78% 30.00 in 10.0 mi Calm Calm - N/A   Clear
6:36 AM 1.4 °F -9.9 °F -0.4 °F 92% 30.01 in 10.0 mi NE 5.8 mph - N/A   Partly Cloudy
6:56 AM 1.4 °F - -4.0 °F 78% 30.01 in 10.0 mi Calm Calm - N/A   Mostly Cloudy
7:16 AM 1.4 °F - -4.0 °F 78% 30.01 in 10.0 mi Calm Calm - N/A   Overcast
7:36 AM 1.4 °F -6.2 °F -4.0 °F 78% 30.01 in 10.0 mi ENE 3.5 mph - N/A   Overcast
7:56 AM 1.4 °F -6.2 °F -0.4 °F 92% 30.01 in 10.0 mi East 3.5 mph - N/A   Overcast
8:16 AM 3.2 °F -6.2 °F -0.4 °F 85% 30.02 in 10.0 mi ENE 4.6 mph - N/A   Overcast
8:36 AM 5.0 °F -5.6 °F -0.4 °F 78% 30.02 in 10.0 mi East 5.8 mph - N/A   Overcast
8:56 AM 6.8 °F -2.0 °F 1.4 °F 79% 30.03 in 10.0 mi ENE 4.6 mph - N/A   Overcast
9:16 AM 8.6 °F - 1.4 °F 73% 30.03 in 10.0 mi Calm Calm - N/A   Overcast
9:36 AM 8.6 °F - 1.4 °F 73% 30.03 in 10.0 mi Calm Calm - N/A   Overcast
10:16 AM 12.2 °F - 3.2 °F 67% 30.03 in 10.0 mi Calm Calm - N/A   Partly Cloudy
10:36 AM 12.2 °F - 3.2 °F 67% 30.04 in 10.0 mi Calm Calm - N/A   Clear
10:56 AM 15.8 °F - 5.0 °F 62% 30.04 in 10.0 mi Calm Calm - N/A   Scattered Clouds
11:16 AM 17.6 °F 10.7 °F 6.8 °F 63% 30.04 in 10.0 mi North 4.6 mph - N/A   Scattered Clouds
11:36 AM 17.6 °F 8.2 °F 5.0 °F 58% 30.04 in 10.0 mi NNE 6.9 mph - N/A   Partly Cloudy
11:56 AM 19.4 °F 14.3 °F 3.2 °F 49% 30.04 in 10.0 mi ENE 3.5 mph - N/A   Partly Cloudy
12:16 PM 19.4 °F 10.4 °F 5.0 °F 54% 30.04 in 10.0 mi NE 6.9 mph - N/A   Clear
12:36 PM 19.4 °F 10.4 °F 3.2 °F 49% 30.04 in 10.0 mi NNE 6.9 mph - N/A   Clear
12:56 PM 19.4 °F 9.5 °F 3.2 °F 49% 30.04 in 10.0 mi North 8.1 mph - N/A   Clear
1:16 PM 21.2 °F 11.7 °F 3.2 °F 46% 30.04 in 10.0 mi NNW 8.1 mph - N/A   Clear
1:36 PM 21.2 °F 11.7 °F 3.2 °F 46% 30.04 in 10.0 mi NNE 8.1 mph - N/A   Scattered Clouds
1:56 PM 21.2 °F 10.9 °F 3.2 °F 46% 30.05 in 10.0 mi North 9.2 mph 17.3 mph N/A   Overcast
2:16 PM 21.2 °F 10.9 °F 8.6 °F 58% 30.05 in 10.0 mi North 9.2 mph - N/A   Overcast
2:36 PM 21.2 °F 10.9 °F 6.8 °F 54% 30.05 in 10.0 mi North 9.2 mph 16.1 mph N/A   Overcast
2:56 PM 21.2 °F 11.7 °F 8.6 °F 58% 30.05 in 10.0 mi NNW 8.1 mph - N/A   Overcast
3:16 PM 21.2 °F 11.7 °F 6.8 °F 54% 30.05 in 10.0 mi NNE 8.1 mph 17.3 mph N/A   Overcast
3:36 PM 21.2 °F 10.9 °F 6.8 °F 54% 30.05 in 10.0 mi NNE 9.2 mph - N/A   Overcast
3:56 PM 21.2 °F 10.1 °F 6.8 °F 54% 30.05 in 10.0 mi NNE 10.4 mph - N/A   Overcast
4:16 PM 21.2 °F 10.9 °F 5.0 °F 50% 30.05 in 10.0 mi NNE 9.2 mph - N/A   Overcast
4:36 PM 21.2 °F 11.7 °F 6.8 °F 54% 30.05 in 10.0 mi North 8.1 mph - N/A   Overcast
4:56 PM 21.2 °F 12.6 °F 5.0 °F 50% 30.05 in 10.0 mi North 6.9 mph - N/A   Mostly Cloudy
5:16 PM 21.2 °F 11.7 °F 6.8 °F 54% 30.06 in 10.0 mi North 8.1 mph - N/A   Partly Cloudy
5:36 PM 21.2 °F 11.7 °F 3.2 °F 46% 30.05 in 10.0 mi NNW 8.1 mph - N/A   Clear
5:56 PM 21.2 °F 14.9 °F 6.8 °F 54% 30.05 in 10.0 mi North 4.6 mph - N/A   Partly Cloudy
6:16 PM 21.2 °F 13.6 °F 3.2 °F 46% 30.05 in 10.0 mi NNW 5.8 mph - N/A   Partly Cloudy
6:36 PM 21.2 °F 11.7 °F 3.2 °F 46% 30.05 in 10.0 mi NNW 8.1 mph - N/A   Clear
6:56 PM 21.2 °F 11.7 °F 3.2 °F 46% 30.06 in 10.0 mi North 8.1 mph - N/A   Clear
7:16 PM 23.0 °F 15.8 °F 3.2 °F 43% 30.05 in 10.0 mi NNW 5.8 mph - N/A   Partly Cloudy
7:36 PM 23.0 °F 13.9 °F 5.0 °F 46% 30.06 in 10.0 mi North 8.1 mph - N/A   Mostly Cloudy
7:56 PM 23.0 °F 14.7 °F 5.0 °F 46% 30.06 in 10.0 mi North 6.9 mph - N/A   Overcast
8:16 PM 21.2 °F 11.7 °F 5.0 °F 50% 30.06 in 10.0 mi NNW 8.1 mph - N/A   Overcast
8:36 PM 21.2 °F 12.6 °F 3.2 °F 46% 30.07 in 10.0 mi NNW 6.9 mph - N/A   Overcast
8:56 PM 21.2 °F 16.4 °F 3.2 °F 46% 30.07 in 10.0 mi NNW 3.5 mph - N/A   Mostly Cloudy
9:16 PM 21.2 °F - 3.2 °F 46% 30.07 in 10.0 mi Calm Calm - N/A   Partly Cloudy
9:36 PM 19.4 °F 12.8 °F 3.2 °F 49% 30.08 in 10.0 mi NW 4.6 mph - N/A   Clear
9:56 PM 19.4 °F 12.8 °F 3.2 °F 49% 30.08 in 10.0 mi NNW 4.6 mph - N/A   Clear
10:16 PM 19.4 °F 14.3 °F 3.2 °F 49% 30.09 in 10.0 mi NW 3.5 mph - N/A   Clear
10:36 PM 19.4 °F 12.8 °F 3.2 °F 49% 30.09 in 10.0 mi NW 4.6 mph - N/A   Clear
10:56 PM 17.6 °F 10.7 °F 3.2 °F 53% 30.10 in 10.0 mi NW 4.6 mph - N/A   Clear
11:16 PM 15.8 °F 8.6 °F 1.4 °F 53% 30.10 in 10.0 mi West 4.6 mph - N/A   Clear
11:36 PM 15.8 °F 10.2 °F 3.2 °F 58% 30.11 in 10.0 mi West 3.5 mph - N/A   Clear
11:56 PM 15.8 °F 10.2 °F 3.2 °F 58% 30.11 in 10.0 mi West 3.5 mph - N/A   Clear